This is the latest recevied weather packets stored in our database for station/object VK4AB-13. If no packets are shown the sender has not sent any weather packets the latest 1 day(s).
| Time | Temp. | Humidity | Pressure | Rain* | Wind** | Luminosity | Snow |
|---|---|---|---|---|---|---|---|
| 1777993726 | 20° C | 93% | 1017.3 hPa | 12.7 mm | 0.45 m/s, 153° | 0 W/m² | - |
| 1777993426 | 20° C | 93% | 1017.1 hPa | 11.94 mm | 0.45 m/s, 152° | 0 W/m² | - |
| 1777993126 | 20° C | 92% | 1017.2 hPa | 12.45 mm | 0.89 m/s, 148° | 0 W/m² | - |
| 1777992826 | 20° C | 92% | 1017.3 hPa | 11.43 mm | 0.89 m/s, 147° | 0 W/m² | - |
| 1777992526 | 20° C | 92% | 1017.3 hPa | 10.16 mm | 0.89 m/s, 205° | 0 W/m² | - |
| 1777992226 | 20° C | 92% | 1017.3 hPa | 8.89 mm | 0.89 m/s, 219° | 0 W/m² | - |
| 1777991926 | 20° C | 92% | 1017.4 hPa | 7.87 mm | 0.89 m/s, 222° | 0 W/m² | - |
| 1777991626 | 20.56° C | 91% | 1017.5 hPa | 7.37 mm | 1.34 m/s, 226° | 0 W/m² | - |
| 1777991326 | 20.56° C | 91% | 1017.6 hPa | 6.86 mm | 1.34 m/s, 196° | 0 W/m² | - |
| 1777991026 | 20.56° C | 91% | 1017.5 hPa | 5.84 mm | 1.34 m/s, 183° | 0 W/m² | - |
| 1777990726 | 20.56° C | 90% | 1017.5 hPa | 4.32 mm | 1.34 m/s, 150° | 0 W/m² | - |
| 1777990426 | 21.11° C | 89% | 1017.5 hPa | 2.29 mm | 0.89 m/s, 145° | 0 W/m² | - |
| 1777990126 | 21.11° C | 89% | 1017.4 hPa | 1.78 mm | 1.34 m/s, 196° | 0 W/m² | - |
| 1777989826 | 21.11° C | 88% | 1017.3 hPa | 1.27 mm | 1.79 m/s, 235° | 0 W/m² | - |
| 1777989580 | 21.67° C | 87% | 1017.1 hPa | 0 mm | 1.79 m/s, 209° | 0 W/m² | - |
| 1777989526 | 21.67° C | 87% | 1017.1 hPa | 0 mm | 1.79 m/s, 209° | 0 W/m² | - |
| 1777989226 | 21.67° C | 86% | 1017.2 hPa | 0 mm | 1.79 m/s, 222° | 0 W/m² | - |
| 1777988979 | 21.67° C | 86% | 1017.1 hPa | 0 mm | 0.89 m/s, 214° | 0 W/m² | - |
| 1777988926 | 21.67° C | 86% | 1017.1 hPa | 0 mm | 0.89 m/s, 214° | 0 W/m² | - |
| 1777988626 | 21.67° C | 87% | 1017.1 hPa | 0 mm | 0.45 m/s, 215° | 0 W/m² | - |
| 1777988326 | 21.67° C | 86% | 1017.3 hPa | 0 mm | 0 m/s | 0 W/m² | - |
| 1777988089 | 21.67° C | 86% | 1017.3 hPa | 0 mm | 0 m/s | 0 W/m² | - |
| 1777988026 | 21.67° C | 86% | 1017.3 hPa | 0 mm | 0 m/s | 0 W/m² | - |
| 1777987726 | 21.67° C | 85% | 1017.4 hPa | 0 mm | 0 m/s | 0 W/m² | - |
| 1777987551 | 21.67° C | 86% | 1017.3 hPa | 0 mm | 0 m/s | 0 W/m² | - |
* Rain latest hour (hover to see other rain measurements)
** Current wind speed in m/s (hover to see current wind gust speed)